QPF
0.00 0.00 0.00 0.00 0.00 0.00 0.00 0.00 0.00 0.00 0.01 0.02 0.00 0.00 0.00 0.00 0.00 0.00 0.00 0.00 0.00 0.00 0.00 0.01 0.04 0.02 0.00 0.00 0.00 0.00 0.00 0.00 0.00 0.00 0.01 0.01 0.01 0.00 0.01 0.02 0.02 0.01 0.01 0.02 0.01 0.00 0.00 0.00 0.00
0.00 0.01 0.00 0.00 0.00 0.00 0.00 0.00 0.02 0.04 0.01 0.00 0.00 0.00 0.00 0.00 0.00 0.01 0.00 0.00 0.00 0.00 0.00 0.00 0.01 0.00 0.00 0.00 0.01 0.02 0.01 0.00 0.00 0.01 0.01 0.00 0.00 0.00 0.00 0.00 0.00 0.00 0.00 0.00 0.00 0.00 0.00 0.00 0.00
0.00 0.00 0.00 0.00 0.00 0.00 0.01 0.00 0.00 0.00 0.00 0.00 0.00 0.00 0.00 0.00 0.00 0.00 0.00 0.00 0.00 0.00 0.00 0.00 0.00 0.00 0.00 0.00 0.01 0.00 0.00 0.00 0.00 0.02 0.00 0.01 0.01 0.00 0.00 0.00 0.00 0.00 0.00 0.00 0.00 0.00 0.00 0.00 0.00
0.00 0.00 0.00 0.00 0.00 0.00 0.00 0.00 0.00 0.00 0.00 0.00 0.01 0.00 0.00 0.01 0.00 0.00 0.00 0.00 0.00 0.00 0.00 0.00 0.00 0.00 0.00 0.00 0.00 0.00 0.00 0.00 0.00 0.00 0.00 0.00 0.00 0.00 0.01 0.00 0.00 0.00 0.00 0.00 0.00 0.00 0.00 0.00 0.00
0.00 0.00 0.00 0.00 0.00 0.00 0.00 0.01 0.00 0.01 0.00 0.00 0.00 0.00 0.01 0.01 0.00 0.00 0.00 0.00 0.00 0.00 0.00 0.00 0.01 0.00 0.00 0.00 0.00 0.00 0.01 0.00 0.00 0.01 0.01 0.00 0.00 0.00 0.00 0.00 0.00 0.00 0.00 0.00 0.00 0.00 0.00 0.00 0.00
0.00 0.00 0.00 0.00 0.00 0.00 0.00 0.00 0.00 0.00 0.00 0.00 0.00 0.00 0.02 0.02 0.00 0.00 0.00 0.00 0.00 0.00 0.00 0.00 0.01 0.00 0.00 0.00 0.00 0.00 0.00 0.01 0.00 0.00 0.00 0.00 0.00 0.00 0.00 0.00 0.00 0.00 0.00 0.00 0.00 0.00 0.00 0.00 0.00
0.00 0.00 0.00 0.00 0.00 0.00 0.00 0.00 0.00 0.00 0.00 0.00 0.00 0.00 0.02 0.01 0.00 0.00 0.00 0.00 0.00 0.00 0.00 0.01 0.01 0.01 0.00 0.00 0.01 0.01 0.01 0.01 0.00 0.00 0.00 0.00 0.00 0.00 0.00 0.00 0.00 0.00 0.00 0.00 0.00 0.00 0.00 0.00 0.00
0.00 0.00 0.00 0.00 0.00 0.00 0.00 0.00 0.00 0.00 0.00 0.00 0.00 0.00 0.01 0.00 0.00 0.00 0.00 0.00 0.00 0.00 0.00 0.00 0.00 0.01 0.00 0.00 0.01 0.01 0.00 0.00 0.00 0.00 0.00 0.00 0.00 0.00 0.00 0.00 0.00 0.01 0.01 0.01 0.00 0.00 0.00 0.00 0.00
0.00 0.00 0.00 0.00 0.00 0.00 0.00 0.00 0.00 0.00 0.00 0.00 0.00 0.00 0.00 0.00 0.00 0.00 0.00 0.00 0.00 0.00 0.00 0.00 0.00 0.00 0.00 0.00 0.00 0.00 0.00 0.00 0.00 0.00 0.02 0.02 0.00 0.00 0.00 0.00 0.04 0.18 0.19 0.09 0.04 0.03 0.00 0.00 0.00
0.00 0.00 0.00 0.00 0.00 0.00 0.00 0.00 0.00 0.00 0.00 0.00 0.00 0.00 0.00 0.00 0.00 0.00 0.00 0.00 0.00 0.00 0.00 0.00 0.00 0.00 0.00 0.00 0.00 0.00 0.00 0.00 0.00 0.00 0.00 0.00 0.00 0.00 0.00 0.00 0.03 0.05 0.00 0.00 0.03 0.09 0.02 0.00 0.00
0.00 0.00 0.00 0.00 0.00 0.00 0.00 0.00 0.00 0.00 0.00 0.00 0.00 0.00 0.00 0.00 0.00 0.00 0.00 0.00 0.00 0.00 0.00 0.00 0.00 0.00 0.00 0.00 0.00 0.00 0.00 0.00 0.00 0.00 0.00 0.00 0.00 0.00 0.00 0.00 0.00 0.00 0.00 0.00 0.00 0.00 0.00 0.00 0.00
0.00 0.00 0.00 0.00 0.00 0.00 0.00 0.00 0.00 0.00 0.00 0.00 0.00 0.00 0.00 0.00 0.00 0.00 0.00 0.00 0.00 0.00 0.00 0.00 0.00 0.00 0.00 0.00 0.00 0.00 0.00 0.00 0.00 0.00 0.00 0.00 0.00 0.00 0.00 0.01 0.00 0.00 0.00 0.00 0.00 0.00 0.00 0.00 0.00
0.00 0.00 0.00 0.00 0.00 0.00 0.00 0.00 0.00 0.00 0.00 0.00 0.00 0.00 0.00 0.00 0.00 0.00 0.00 0.00 0.00 0.00 0.00 0.00 0.00 0.00 0.00 0.00 0.00 0.00 0.00 0.00 0.00 0.00 0.00 0.00 0.01 0.02 0.00 0.01 0.00 0.00 0.00 0.00 0.00 0.00 0.00 0.00 0.00
0.00 0.00 0.00 0.00 0.00 0.00 0.00 0.00 0.00 0.00 0.00 0.00 0.00 0.00 0.00 0.00 0.00 0.00 0.00 0.00 0.00 0.00 0.00 0.00 0.00 0.00 0.00 0.00 0.00 0.00 0.00 0.00 0.00 0.00 0.00 0.00 0.00 0.01 0.00 0.02 0.00 0.00 0.00 0.00 0.00 0.00 0.00 0.00 0.00
0.00 0.00 0.00 0.00 0.00 0.00 0.00 0.00 0.00 0.00 0.00 0.00 0.00 0.00 0.00 0.00 0.00 0.00 0.00 0.00 0.00 0.00 0.00 0.00 0.00 0.00 0.00 0.00 0.00 0.00 0.00 0.00 0.00 0.00 0.00 0.00 0.00 0.00 0.00 0.00 0.00 0.00 0.00 0.00 0.00 0.00 0.00 0.00 0.00
0.00 0.00 0.00 0.00 0.00 0.00 0.00 0.00 0.00 0.00 0.00 0.00 0.00 0.00 0.00 0.00 0.00 0.00 0.00 0.00 0.00 0.00 0.00 0.00 0.00 0.00 0.00 0.00 0.00 0.00 0.00 0.00 0.00 0.00 0.00 0.00 0.00 0.00 0.00 0.00 0.00 0.00 0.00 0.00 0.00 0.00 0.00 0.00 0.00
0.00 0.00 0.00 0.00 0.00 0.00 0.00 0.00 0.00 0.00 0.00 0.00 0.00 0.00 0.00 0.00 0.00 0.00 0.00 0.00 0.00 0.00 0.00 0.00 0.00 0.00 0.00 0.00 0.00 0.00 0.00 0.00 0.00 0.00 0.00 0.00 0.00 0.00 0.00 0.00 0.02 0.01 0.00 0.00 0.00 0.00 0.00 0.00 0.00
0.00 0.00 0.00 0.00 0.00 0.00 0.00 0.00 0.00 0.00 0.00 0.00 0.00 0.00 0.00 0.00 0.00 0.00 0.00 0.00 0.00 0.00 0.00 0.00 0.00 0.00 0.00 0.00 0.00 0.00 0.00 0.00 0.00 0.00 0.00 0.00 0.00 0.00 0.00 0.00 0.00 0.00 0.00 0.02 0.03 0.01 0.00 0.00 0.00
0.00 0.00 0.00 0.00 0.00 0.00 0.00 0.00 0.00 0.00 0.00 0.00 0.00 0.00 0.00 0.00 0.00 0.00 0.00 0.00 0.00 0.00 0.00 0.00 0.00 0.00 0.00 0.00 0.00 0.00 0.00 0.00 0.00 0.00 0.00 0.00 0.00 0.00 0.00 0.00 0.00 0.00 0.05 0.04 0.04 0.00 0.00 0.00 0.00
0.00 0.00 0.00 0.00 0.00 0.00 0.00 0.00 0.00 0.00 0.00 0.00 0.00 0.00 0.00 0.00 0.00 0.00 0.00 0.00 0.00 0.00 0.00 0.00 0.00 0.00 0.00 0.00 0.00 0.00 0.00 0.00 0.00 0.00 0.00 0.00 0.00 0.00 0.00 0.00 0.00 0.00 0.07 0.03 0.01 0.00 0.00 0.00 0.00
0.00 0.00 0.00 0.00 0.00 0.00 0.00 0.00 0.00 0.00 0.00 0.00 0.00 0.00 0.00 0.00 0.00 0.00 0.00 0.00 0.00 0.00 0.00 0.00 0.00 0.00 0.00 0.00 0.00 0.00 0.00 0.00 0.00 0.00 0.00 0.00 0.00 0.00 0.00 0.00 0.00 0.00 0.00 0.00 0.00 0.00 0.00 0.00 0.00
0.00 0.00 0.00 0.00 0.00 0.00 0.00 0.00 0.00 0.00 0.00 0.00 0.00 0.00 0.00 0.00 0.00 0.00 0.00 0.00 0.00 0.00 0.00 0.00 0.00 0.00 0.00 0.00 0.00 0.00 0.00 0.00 0.00 0.00 0.00 0.00 0.00 0.00 0.00 0.00 0.00 0.00 0.00 0.00 0.00 0.00 0.00 0.01 0.01
0.00 0.00 0.00 0.00 0.00 0.00 0.00 0.00 0.00 0.00 0.00 0.00 0.00 0.00 0.00 0.00 0.00 0.00 0.00 0.00 0.00 0.00 0.00 0.00 0.00 0.00 0.00 0.00 0.00 0.00 0.00 0.00 0.00 0.00 0.00 0.00 0.00 0.00 0.00 0.00 0.00 0.00 0.00 0.00 0.00 0.00 0.00 0.00 0.00
0.00 0.00 0.00 0.00 0.00 0.00 0.00 0.00 0.00 0.00 0.00 0.00 0.00 0.00 0.00 0.00 0.00 0.00 0.00 0.00 0.00 0.00 0.00 0.00 0.00 0.00 0.00 0.00 0.00 0.00 0.00 0.00 0.00 0.00 0.00 0.00 0.00 0.00 0.00 0.00 0.00 0.00 0.00 0.00 0.00 0.00 0.00 0.00 0.00
0.00 0.00 0.00 0.00 0.00 0.00 0.00 0.00 0.00 0.00 0.00 0.00 0.00 0.00 0.00 0.00 0.00 0.00 0.00 0.00 0.00 0.00 0.00 0.00 0.00 0.00 0.00 0.00 0.00 0.00 0.00 0.00 0.00 0.00 0.00 0.00 0.00 0.00 0.00 0.00 0.00 0.00 0.00 0.00 0.00 0.00 0.00 0.00 0.00
0.00 0.00 0.00 0.00 0.00 0.00 0.00 0.00 0.00 0.00 0.00 0.00 0.00 0.00 0.00 0.00 0.00 0.00 0.00 0.00 0.00 0.00 0.00 0.00 0.00 0.00 0.00 0.00 0.00 0.00 0.00 0.00 0.00 0.00 0.00 0.00 0.00 0.00 0.00 0.00 0.00 0.00 0.00 0.00 0.00 0.00 0.00 0.00 0.00
0.00 0.00 0.00 0.00 0.00 0.00 0.00 0.00 0.00 0.00 0.00 0.00 0.00 0.00 0.00 0.00 0.00 0.00 0.00 0.00 0.00 0.00 0.00 0.00 0.00 0.00 0.00 0.00 0.00 0.00 0.00 0.00 0.00 0.00 0.00 0.00 0.00 0.00 0.00 0.00 0.00 0.00 0.00 0.00 0.00 0.00 0.00 0.00 0.00
0.00 0.00 0.00 0.00 0.00 0.00 0.00 0.00 0.00 0.00 0.00 0.00 0.00 0.00 0.00 0.00 0.00 0.00 0.00 0.00 0.00 0.00 0.00 0.00 0.00 0.00 0.00 0.00 0.00 0.00 0.00 0.00 0.00 0.00 0.00 0.00 0.00 0.00 0.00 0.00 0.00 0.00 0.00 0.00 0.00 0.00 0.00 0.00 0.00
0.00 0.00 0.00 0.00 0.00 0.00 0.00 0.00 0.00 0.00 0.00 0.00 0.00 0.00 0.00 0.00 0.00 0.00 0.00 0.00 0.00 0.00 0.00 0.00 0.00 0.00 0.00 0.00 0.00 0.00 0.00 0.00 0.00 0.00 0.00 0.00 0.00 0.00 0.00 0.00 0.00 0.00 0.00 0.00 0.00 0.00 0.00 0.00 0.00
0.00 0.00 0.00 0.00 0.00 0.00 0.00 0.00 0.00 0.00 0.00 0.00 0.00 0.00 0.00 0.00 0.00 0.00 0.00 0.00 0.00 0.00 0.00 0.00 0.00 0.00 0.00 0.00 0.00 0.00 0.00 0.00 0.00 0.00 0.00 0.00 0.00 0.00 0.00 0.00 0.00 0.00 0.00 0.00 0.00 0.00 0.00 0.00 0.00
MSLP
1009.97 1010.13 1010.26 1010.26 1010.56 1009.64 1009.90 1010.32 1010.73 1010.88 1011.48 1012.04 1012.20 1012.58 1013.55 1014.18 1014.62 1015.72 1016.37 1016.44 1016.34 1016.48 1016.50 1016.40 1016.48 1016.45 1016.42 1016.45 1016.60 1016.61 1016.61 1016.58 1016.66 1016.76 1016.83 1016.85 1016.93 1017.06 1017.12 1017.20 1017.16 1017.15 1017.22 1017.31 1017.40 1017.47 1017.42 1017.43 1017.51
1009.81 1010.21 1009.98 1009.55 1009.39 1008.93 1009.62 1010.04 1010.33 1010.83 1011.59 1012.19 1012.62 1013.20 1013.71 1014.69 1015.18 1015.80 1016.09 1016.38 1016.21 1016.35 1016.46 1016.55 1016.68 1016.65 1016.74 1016.80 1016.75 1016.75 1016.78 1016.88 1017.01 1017.04 1017.11 1017.19 1017.25 1017.33 1017.37 1017.43 1017.46 1017.39 1017.40 1017.47 1017.46 1017.55 1017.65 1017.62 1017.59
1009.85 1009.68 1009.55 1009.20 1009.15 1008.80 1009.20 1009.68 1010.18 1011.21 1011.69 1011.96 1012.97 1013.74 1014.45 1015.39 1015.85 1016.15 1016.32 1016.42 1016.37 1016.37 1016.51 1016.53 1016.73 1016.85 1016.98 1016.97 1017.00 1017.16 1017.13 1017.22 1017.32 1017.35 1017.43 1017.46 1017.43 1017.51 1017.59 1017.66 1017.64 1017.64 1017.61 1017.57 1017.60 1017.56 1017.58 1017.59 1017.52
1009.70 1009.69 1009.56 1009.16 1008.76 1009.12 1009.17 1009.70 1010.43 1011.23 1011.96 1012.58 1013.16 1014.33 1015.22 1015.69 1016.08 1016.23 1016.58 1016.41 1016.59 1016.62 1016.72 1016.74 1016.73 1017.02 1017.21 1017.24 1017.37 1017.42 1017.40 1017.54 1017.56 1017.60 1017.70 1017.66 1017.75 1017.76 1017.76 1017.76 1017.86 1017.85 1017.80 1017.75 1017.72 1017.70 1017.66 1017.57 1017.46
1009.44 1009.05 1008.53 1008.47 1008.62 1009.06 1009.42 1009.97 1010.56 1011.16 1011.98 1012.76 1013.25 1014.56 1015.61 1016.28 1016.49 1016.58 1016.74 1016.69 1016.62 1016.87 1016.90 1016.92 1017.09 1017.24 1017.44 1017.51 1017.62 1017.63 1017.63 1017.75 1017.80 1017.75 1017.85 1017.93 1017.98 1017.89 1018.02 1018.07 1018.08 1018.12 1018.05 1018.01 1017.97 1017.83 1017.74 1017.56 1017.49
1008.83 1008.59 1008.04 1007.98 1008.54 1009.19 1009.77 1010.19 1010.78 1011.45 1012.31 1012.98 1013.60 1014.46 1015.97 1016.54 1016.69 1016.81 1016.96 1016.77 1016.74 1016.98 1017.16 1017.07 1017.31 1017.52 1017.72 1017.80 1017.87 1017.86 1017.92 1018.05 1018.11 1018.11 1018.08 1018.13 1018.19 1018.22 1018.21 1018.22 1018.24 1018.21 1018.11 1018.02 1018.02 1017.88 1017.67 1017.50 1017.43
1008.37 1008.00 1007.78 1007.96 1008.35 1008.92 1009.64 1010.38 1010.74 1011.51 1012.38 1012.85 1013.41 1014.52 1016.06 1016.54 1016.74 1016.97 1017.02 1017.08 1017.16 1017.38 1017.35 1017.33 1017.44 1017.63 1017.96 1018.01 1017.96 1018.03 1018.17 1018.26 1018.30 1018.28 1018.31 1018.35 1018.35 1018.36 1018.36 1018.35 1018.32 1018.29 1018.10 1018.01 1017.89 1017.76 1017.60 1017.48 1017.50
1008.28 1007.87 1007.64 1007.74 1008.03 1008.69 1009.71 1010.44 1011.20 1011.64 1012.57 1013.12 1013.51 1014.28 1015.43 1016.30 1016.72 1017.07 1017.23 1017.42 1017.69 1017.46 1017.51 1017.63 1017.79 1017.99 1018.21 1018.05 1018.24 1018.27 1018.42 1018.48 1018.44 1018.44 1018.46 1018.49 1018.41 1018.43 1018.31 1018.21 1018.34 1018.30 1018.12 1018.00 1017.74 1017.54 1017.49 1017.32 1017.40
1008.10 1007.62 1007.19 1007.28 1007.73 1008.41 1009.70 1010.37 1011.60 1012.21 1012.66 1013.47 1013.94 1014.14 1015.03 1016.26 1016.88 1017.14 1017.50 1017.71 1017.71 1017.93 1017.94 1017.88 1018.05 1018.31 1018.44 1018.37 1018.35 1018.47 1018.58 1018.61 1018.62 1018.63 1018.69 1018.55 1018.36 1018.27 1018.12 1018.16 1018.21 1017.97 1017.97 1017.89 1017.66 1017.44 1017.34 1017.20 1017.06
1007.71 1007.26 1006.68 1006.85 1007.29 1008.21 1009.39 1010.17 1011.30 1012.20 1012.96 1013.94 1014.42 1015.06 1015.82 1016.46 1016.95 1017.07 1017.21 1017.46 1017.91 1018.01 1018.07 1018.00 1018.27 1018.41 1018.40 1018.30 1018.51 1018.56 1018.66 1018.68 1018.74 1018.83 1018.83 1018.53 1018.54 1018.50 1018.29 1018.09 1018.07 1018.05 1018.03 1017.74 1017.54 1017.49 1017.43 1017.19 1016.87
1007.29 1006.79 1006.87 1007.02 1007.38 1008.10 1009.27 1010.38 1011.24 1011.97 1012.79 1013.67 1014.16 1014.96 1015.69 1016.29 1016.82 1016.98 1017.04 1017.39 1017.60 1017.76 1017.96 1018.28 1018.31 1018.58 1018.37 1018.49 1018.58 1018.69 1018.79 1018.77 1018.81 1018.88 1018.87 1018.81 1018.52 1018.29 1017.99 1017.83 1017.72 1017.76 1017.58 1017.29 1017.35 1017.29 1017.18 1017.23 1016.97
1006.87 1006.99 1006.95 1007.36 1007.80 1008.49 1009.36 1010.45 1011.33 1012.07 1012.66 1013.18 1014.19 1014.91 1015.54 1016.15 1016.60 1016.69 1017.07 1017.28 1017.71 1017.82 1018.05 1018.17 1018.45 1018.55 1018.57 1018.55 1018.63 1018.75 1018.75 1018.70 1018.62 1018.67 1018.80 1018.60 1018.17 1018.10 1018.14 1017.98 1017.77 1017.77 1017.57 1017.36 1017.28 1017.01 1017.16 1017.03 1016.92
1006.61 1007.13 1007.52 1007.96 1008.46 1009.11 1009.89 1010.64 1011.58 1012.70 1013.06 1013.43 1014.40 1015.30 1015.66 1016.06 1016.65 1016.83 1016.95 1017.26 1017.73 1017.85 1018.03 1018.18 1018.42 1018.43 1018.51 1018.79 1018.75 1018.89 1018.84 1018.78 1018.73 1018.68 1018.68 1018.51 1018.21 1018.27 1018.25 1017.95 1017.85 1017.81 1017.75 1017.39 1017.27 1017.13 1016.89 1016.89 1016.78
1006.92 1007.43 1008.07 1008.47 1008.91 1009.48 1010.04 1011.15 1011.71 1013.41 1013.65 1014.12 1014.75 1015.30 1015.63 1016.00 1016.32 1016.74 1016.90 1017.06 1017.49 1017.69 1017.90 1018.20 1018.33 1018.34 1018.57 1018.65 1018.90 1018.85 1018.90 1018.83 1018.67 1018.57 1018.52 1018.62 1018.45 1018.38 1018.13 1017.93 1017.83 1017.70 1017.86 1017.75 1017.55 1017.34 1017.07 1016.84 1016.68
1007.14 1007.52 1008.33 1008.77 1009.12 1009.50 1009.98 1010.90 1012.01 1013.38 1013.96 1014.43 1014.98 1015.44 1015.83 1016.06 1016.19 1016.29 1016.54 1016.91 1017.22 1017.74 1017.87 1018.12 1018.22 1018.29 1018.49 1018.72 1018.84 1018.83 1018.73 1018.65 1018.64 1018.61 1018.63 1018.53 1018.49 1018.30 1018.23 1017.87 1017.72 1017.76 1017.80 1017.69 1017.43 1017.17 1016.83 1016.71 1016.38
1006.76 1007.30 1007.70 1008.47 1008.80 1009.31 1009.87 1010.20 1012.10 1013.28 1013.88 1014.41 1014.99 1015.50 1015.79 1015.92 1015.84 1016.06 1016.36 1016.63 1017.07 1017.38 1017.81 1018.07 1018.02 1018.22 1018.43 1018.61 1018.69 1018.62 1018.67 1018.70 1018.69 1018.67 1018.56 1018.53 1018.32 1018.21 1018.11 1017.85 1017.71 1017.75 1017.59 1017.41 1017.21 1017.21 1016.90 1016.79 1016.62
1006.63 1006.64 1007.30 1007.90 1008.26 1008.69 1009.56 1009.77 1011.37 1012.61 1013.25 1013.84 1014.31 1014.81 1015.19 1015.40 1015.61 1015.80 1016.07 1016.38 1016.71 1017.23 1017.68 1017.92 1018.13 1018.18 1018.35 1018.48 1018.50 1018.61 1018.75 1018.68 1018.58 1018.52 1018.39 1018.48 1018.25 1018.15 1018.15 1017.92 1017.89 1017.77 1017.44 1017.38 1017.46 1017.28 1017.20 1016.83 1016.67
1005.58 1006.21 1006.73 1006.90 1007.45 1008.21 1008.86 1009.25 1010.58 1011.73 1012.39 1012.90 1013.43 1013.79 1014.19 1014.54 1014.77 1015.21 1015.67 1016.01 1016.50 1017.03 1017.47 1017.78 1018.00 1018.14 1018.32 1018.37 1018.58 1018.53 1018.52 1018.50 1018.52 1018.34 1018.28 1018.32 1018.28 1018.24 1018.12 1017.88 1017.85 1017.79 1017.50 1017.51 1017.55 1017.54 1017.39 1017.22 1017.02
1004.90 1005.51 1005.85 1006.28 1006.75 1007.51 1007.86 1008.45 1009.59 1010.78 1011.54 1011.96 1012.42 1012.86 1013.22 1013.59 1014.03 1014.61 1015.16 1015.63 1016.18 1016.71 1017.17 1017.52 1017.79 1017.96 1018.26 1018.40 1018.41 1018.38 1018.24 1018.31 1018.29 1018.16 1018.35 1018.35 1018.27 1018.11 1018.02 1017.73 1017.67 1017.65 1017.83 1017.81 1017.77 1017.67 1017.53 1017.10 1017.13
1004.84 1005.06 1005.40 1005.95 1006.48 1007.06 1007.34 1007.50 1008.56 1009.58 1009.90 1010.56 1011.09 1011.66 1012.12 1012.68 1013.18 1013.89 1014.51 1015.07 1015.59 1016.07 1016.61 1017.13 1017.42 1017.73 1018.04 1018.19 1018.33 1018.31 1018.37 1018.31 1018.26 1018.13 1018.17 1018.19 1018.15 1018.10 1017.89 1017.96 1017.77 1017.69 1017.62 1018.01 1018.05 1017.90 1017.53 1017.33 1017.50
1004.42 1004.42 1004.78 1005.26 1006.13 1006.70 1006.85 1006.70 1007.51 1008.36 1009.14 1009.92 1010.26 1010.62 1011.04 1011.57 1012.22 1013.04 1013.78 1014.26 1014.92 1015.48 1015.93 1016.40 1016.85 1017.23 1017.59 1017.96 1018.25 1018.41 1018.46 1018.37 1018.20 1018.07 1017.97 1017.97 1018.13 1018.12 1018.03 1017.88 1017.81 1017.78 1017.97 1017.98 1018.14 1018.06 1017.92 1017.42 1017.48
1003.72 1004.00 1004.53 1005.09 1005.41 1005.52 1006.28 1005.26 1005.79 1006.40 1007.47 1008.46 1009.02 1009.47 1009.92 1010.62 1011.41 1012.09 1012.82 1013.44 1013.98 1014.48 1015.15 1015.73 1016.28 1016.71 1017.12 1017.62 1017.87 1018.03 1018.03 1017.96 1017.92 1018.06 1018.08 1018.04 1018.03 1018.00 1017.89 1017.87 1017.80 1017.99 1017.93 1018.20 1018.21 1018.09 1018.11 1017.94 1017.57
1003.24 1003.63 1004.21 1004.73 1005.05 1005.33 1005.63 1005.43 1003.89 1005.04 1005.80 1006.35 1007.25 1007.95 1008.63 1009.44 1010.30 1010.97 1011.75 1012.44 1013.10 1013.77 1014.34 1015.00 1015.65 1016.07 1016.50 1017.04 1017.42 1017.63 1017.80 1017.84 1017.99 1017.99 1018.08 1018.03 1017.87 1017.81 1017.76 1017.71 1017.76 1017.91 1017.85 1018.14 1018.15 1018.22 1018.27 1018.27 1018.09
1003.31 1003.78 1004.55 1005.01 1005.07 1004.70 1004.46 1004.47 1002.17 1003.15 1002.98 1003.95 1005.49 1006.62 1007.40 1008.33 1009.31 1010.11 1010.99 1011.75 1012.34 1013.03 1013.64 1014.23 1014.90 1015.29 1015.89 1016.48 1016.95 1017.29 1017.41 1017.59 1017.76 1017.73 1017.74 1017.72 1017.75 1017.62 1017.65 1017.61 1017.78 1017.92 1017.85 1018.02 1018.15 1018.37 1018.55 1018.69 1018.55
1002.44 1002.75 1003.84 1004.24 1004.55 1003.81 1004.25 1004.00 1001.55 1001.44 1001.80 1002.08 1003.06 1004.77 1006.05 1007.27 1008.33 1009.15 1010.05 1010.88 1011.57 1012.14 1012.85 1013.56 1014.20 1014.55 1015.19 1015.78 1016.29 1016.72 1016.97 1017.30 1017.48 1017.53 1017.37 1017.52 1017.49 1017.46 1017.53 1017.55 1017.75 1017.84 1017.93 1018.06 1018.20 1018.62 1018.90 1019.03 1019.00
1001.49 1001.67 1002.57 1003.01 1003.20 1003.23 1004.00 1002.47 1000.49 1000.37 1000.69 1001.39 1002.06 1003.48 1005.00 1006.23 1007.19 1008.09 1009.04 1009.95 1010.66 1011.28 1012.03 1012.74 1013.32 1013.82 1014.43 1015.09 1015.65 1016.17 1016.50 1016.74 1016.89 1017.11 1017.19 1017.28 1017.35 1017.37 1017.37 1017.44 1017.55 1017.75 1018.06 1018.39 1018.76 1018.96 1019.10 1019.44 1019.59
1001.41 1001.64 1001.96 1002.58 1003.60 1003.02 1002.25 1001.41 1000.28 999.94 1000.17 1000.69 1001.56 1002.87 1004.13 1005.11 1006.04 1007.09 1008.13 1009.07 1009.77 1010.39 1011.09 1011.84 1012.57 1013.13 1013.71 1014.38 1015.09 1015.53 1015.92 1016.25 1016.32 1016.73 1017.03 1016.96 1017.12 1017.15 1017.25 1017.30 1017.71 1018.03 1018.50 1019.01 1019.29 1019.27 1019.43 1019.62 1019.76
1000.09 1000.99 1002.01 1002.20 1002.14 1001.98 1001.28 1000.79 999.67 999.27 999.95 1000.66 1001.19 1002.27 1003.43 1004.33 1005.29 1006.40 1007.33 1008.21 1008.91 1009.62 1010.38 1011.21 1011.83 1012.37 1013.00 1013.76 1014.35 1014.75 1015.20 1015.62 1015.99 1016.34 1016.54 1016.65 1016.80 1016.96 1017.16 1017.50 1017.88 1018.38 1018.77 1019.30 1019.16 1019.39 1019.70 1019.79 1019.85
1000.13 1000.21 1000.62 1000.75 1001.42 1000.95 1000.54 999.28 998.90 998.79 999.43 1000.21 1000.62 1001.75 1002.62 1003.54 1004.43 1005.59 1006.60 1007.53 1008.27 1009.00 1009.71 1010.43 1011.13 1011.70 1012.34 1013.00 1013.56 1014.06 1014.46 1015.05 1015.58 1015.78 1016.03 1016.29 1016.61 1016.83 1017.27 1017.67 1018.07 1018.53 1018.91 1019.23 1019.29 1019.54 1019.73 1019.80 1020.06
998.74 998.88 999.58 999.71 1001.01 1001.23 1000.29 998.87 998.62 998.77 999.11 999.91 1000.53 1001.40 1002.20 1002.91 1003.84 1004.98 1005.95 1006.90 1007.72 1008.36 1009.06 1009.72 1010.44 1011.02 1011.49 1012.17 1012.82 1013.37 1013.97 1014.57 1014.93 1015.26 1015.58 1016.03 1016.35 1016.83 1017.23 1017.81 1018.31 1018.77 1019.09 1019.34 1019.42 1019.53 1019.84 1019.89 1020.03
Thickness
5809 5808 5806 5797 5772 5777 5759 5764 5774 5769 5767 5775 5781 5775 5764 5766 5762 5751 5767 5769 5770 5770 5771 5774 5774 5774 5774 5774 5772 5772 5772 5772 5771 5771 5770 5770 5769 5767 5765 5764 5764 5763 5760 5757 5755 5753 5753 5751 5749
5811 5807 5805 5794 5776 5766 5759 5776 5771 5776 5777 5780 5779 5774 5767 5757 5769 5766 5768 5772 5774 5774 5773 5773 5773 5773 5772 5772 5772 5772 5773 5771 5770 5769 5769 5768 5767 5765 5765 5763 5761 5761 5760 5758 5756 5754 5753 5752 5751
5813 5813 5794 5786 5776 5769 5766 5779 5781 5776 5783 5782 5771 5774 5767 5754 5765 5764 5772 5773 5773 5774 5774 5775 5774 5772 5771 5771 5772 5772 5771 5770 5768 5768 5767 5766 5765 5764 5762 5760 5760 5758 5758 5757 5757 5756 5754 5754 5753
5808 5802 5796 5779 5771 5778 5780 5784 5784 5777 5779 5779 5773 5756 5765 5769 5765 5768 5769 5771 5772 5771 5771 5774 5776 5772 5770 5770 5770 5770 5770 5768 5767 5767 5765 5765 5761 5762 5760 5760 5757 5756 5756 5756 5755 5753 5752 5752 5753
5810 5801 5786 5779 5777 5781 5786 5786 5786 5777 5775 5774 5775 5756 5754 5763 5766 5767 5767 5770 5771 5770 5770 5771 5772 5771 5769 5769 5768 5767 5767 5765 5765 5764 5762 5760 5757 5758 5758 5757 5755 5753 5753 5753 5752 5751 5750 5750 5750
5798 5800 5781 5774 5775 5780 5782 5787 5784 5777 5774 5773 5767 5762 5752 5761 5762 5764 5765 5769 5771 5769 5768 5770 5769 5768 5766 5765 5764 5764 5764 5762 5761 5759 5758 5757 5754 5754 5754 5754 5753 5752 5752 5750 5749 5749 5747 5747 5747
5798 5793 5781 5781 5777 5777 5780 5789 5782 5777 5772 5771 5778 5757 5754 5758 5764 5765 5765 5765 5766 5766 5766 5769 5768 5766 5764 5763 5763 5762 5761 5759 5758 5757 5755 5754 5753 5752 5752 5752 5751 5750 5751 5749 5750 5747 5745 5745 5745
5805 5798 5784 5786 5778 5776 5785 5785 5784 5779 5769 5783 5781 5758 5752 5760 5765 5765 5765 5764 5763 5766 5766 5766 5765 5764 5761 5762 5761 5761 5759 5757 5757 5756 5754 5753 5752 5751 5752 5752 5746 5746 5748 5749 5752 5751 5749 5748 5747
5815 5789 5781 5785 5783 5785 5789 5780 5782 5784 5774 5772 5773 5772 5772 5766 5763 5762 5760 5760 5762 5763 5763 5764 5763 5761 5761 5761 5761 5759 5758 5756 5755 5755 5754 5753 5753 5753 5753 5751 5749 5749 5749 5750 5753 5753 5753 5753 5752
5801 5789 5794 5808 5806 5792 5791 5788 5781 5774 5768 5760 5762 5767 5766 5765 5760 5759 5761 5759 5758 5760 5762 5765 5763 5762 5762 5762 5760 5759 5757 5756 5755 5754 5754 5755 5754 5753 5754 5753 5754 5753 5753 5754 5755 5753 5753 5754 5754
5806 5796 5806 5807 5811 5807 5794 5786 5788 5777 5765 5764 5761 5761 5763 5762 5760 5759 5763 5761 5760 5763 5765 5765 5763 5761 5763 5762 5761 5759 5757 5756 5756 5755 5755 5755 5756 5757 5758 5758 5759 5758 5759 5759 5758 5757 5755 5754 5755
5802 5810 5813 5810 5811 5803 5793 5792 5781 5780 5775 5779 5771 5768 5765 5759 5759 5760 5760 5762 5759 5763 5765 5766 5763 5762 5762 5762 5762 5760 5759 5759 5759 5757 5756 5757 5760 5761 5759 5760 5761 5760 5760 5760 5759 5759 5757 5756 5756
5808 5807 5808 5809 5805 5800 5797 5786 5779 5770 5776 5779 5770 5764 5761 5761 5759 5761 5764 5764 5762 5763 5764 5765 5763 5764 5763 5762 5762 5761 5760 5758 5758 5759 5758 5759 5762 5761 5760 5762 5761 5760 5759 5760 5759 5758 5758 5756 5756
5812 5806 5801 5803 5799 5796 5787 5779 5781 5764 5773 5768 5764 5761 5761 5760 5762 5760 5762 5763 5763 5764 5764 5766 5765 5766 5765 5764 5763 5763 5761 5760 5758 5759 5761 5760 5761 5761 5762 5762 5762 5761 5759 5758 5758 5757 5757 5757 5756
5813 5796 5795 5796 5797 5792 5796 5776 5770 5768 5768 5762 5759 5758 5756 5758 5763 5763 5765 5763 5765 5763 5766 5766 5767 5767 5767 5766 5766 5765 5765 5763 5762 5761 5762 5763 5763 5763 5763 5763 5764 5763 5760 5758 5758 5758 5759 5759 5760
5803 5802 5784 5794 5798 5797 5793 5777 5770 5771 5765 5759 5758 5756 5754 5757 5765 5767 5768 5768 5767 5767 5766 5767 5770 5770 5769 5768 5768 5768 5768 5766 5765 5764 5765 5765 5766 5765 5764 5765 5765 5762 5761 5760 5759 5759 5759 5759 5758
5793 5783 5781 5785 5803 5798 5788 5782 5779 5778 5773 5765 5764 5762 5760 5762 5765 5768 5770 5771 5771 5769 5768 5770 5771 5772 5772 5771 5771 5771 5770 5770 5770 5769 5768 5767 5768 5767 5765 5765 5764 5764 5763 5761 5759 5759 5757 5757 5757
5784 5782 5784 5787 5799 5796 5787 5789 5784 5781 5778 5773 5771 5772 5770 5769 5770 5773 5773 5774 5773 5773 5773 5774 5775 5775 5774 5773 5773 5773 5773 5773 5773 5773 5771 5769 5769 5769 5768 5768 5767 5765 5764 5762 5760 5757 5758 5757 5755
5808 5796 5789 5796 5805 5795 5794 5794 5788 5785 5783 5780 5778 5778 5778 5777 5781 5780 5779 5778 5776 5776 5776 5777 5777 5778 5776 5775 5775 5775 5776 5777 5776 5774 5772 5772 5771 5771 5770 5771 5770 5767 5764 5761 5759 5758 5756 5758 5757
5801 5794 5791 5797 5801 5796 5794 5795 5796 5791 5793 5793 5789 5787 5787 5786 5787 5784 5783 5783 5781 5781 5781 5781 5782 5782 5780 5780 5779 5779 5779 5778 5778 5777 5775 5774 5774 5774 5773 5771 5771 5768 5765 5761 5758 5756 5754 5755 5753
5798 5796 5794 5796 5796 5797 5792 5793 5790 5797 5799 5798 5800 5799 5800 5798 5794 5790 5787 5787 5788 5787 5787 5787 5787 5787 5786 5784 5781 5780 5778 5778 5779 5780 5780 5778 5776 5774 5774 5773 5772 5769 5765 5761 5758 5755 5751 5749 5749
5789 5809 5802 5794 5792 5780 5797 5784 5797 5808 5800 5801 5804 5805 5806 5805 5804 5801 5797 5794 5796 5797 5797 5796 5794 5792 5791 5788 5785 5782 5779 5778 5782 5781 5781 5780 5777 5776 5775 5774 5772 5768 5764 5759 5757 5756 5751 5747 5742
5803 5812 5802 5798 5792 5789 5786 5783 5819 5811 5803 5810 5814 5816 5816 5816 5813 5810 5808 5808 5808 5807 5804 5802 5799 5798 5796 5793 5790 5786 5781 5784 5784 5783 5780 5779 5779 5779 5777 5776 5773 5769 5765 5761 5758 5753 5748 5745 5740
5811 5797 5787 5786 5787 5770 5795 5792 5821 5813 5827 5832 5830 5826 5825 5824 5823 5821 5820 5817 5815 5815 5812 5809 5805 5804 5802 5798 5794 5789 5787 5785 5783 5784 5782 5782 5781 5782 5779 5777 5773 5769 5766 5762 5757 5752 5746 5739 5735
5807 5796 5757 5754 5757 5770 5786 5782 5821 5842 5844 5852 5845 5838 5836 5833 5830 5828 5824 5821 5821 5820 5817 5815 5811 5809 5807 5803 5799 5796 5793 5789 5786 5785 5786 5783 5782 5782 5780 5777 5773 5769 5765 5760 5754 5747 5740 5734 5729
5799 5804 5770 5740 5760 5782 5777 5786 5827 5855 5860 5860 5859 5850 5845 5840 5840 5836 5833 5830 5828 5827 5825 5821 5818 5814 5812 5808 5804 5801 5797 5794 5793 5791 5790 5788 5785 5784 5781 5777 5774 5769 5762 5756 5749 5744 5739 5730 5723
5789 5778 5814 5779 5769 5778 5798 5815 5844 5855 5851 5858 5856 5850 5848 5847 5848 5845 5842 5839 5836 5835 5833 5829 5824 5820 5817 5813 5808 5805 5802 5799 5798 5795 5792 5792 5789 5786 5783 5778 5773 5766 5758 5751 5744 5741 5734 5727 5720
5805 5817 5774 5777 5753 5754 5791 5795 5819 5847 5845 5851 5854 5850 5852 5854 5854 5851 5848 5845 5844 5843 5840 5835 5832 5826 5822 5818 5813 5810 5807 5804 5801 5798 5795 5794 5791 5787 5783 5778 5772 5763 5756 5747 5744 5737 5729 5723 5717
5786 5784 5791 5806 5791 5779 5777 5809 5853 5855 5854 5850 5861 5860 5860 5860 5861 5857 5853 5852 5849 5848 5845 5840 5836 5831 5827 5822 5818 5814 5811 5807 5803 5801 5799 5796 5792 5789 5782 5776 5770 5761 5753 5746 5741 5733 5727 5721 5713
5815 5808 5805 5785 5763 5781 5797 5812 5860 5860 5860 5861 5864 5864 5866 5867 5866 5861 5858 5855 5851 5849 5847 5843 5839 5835 5833 5829 5823 5818 5814 5809 5806 5804 5802 5798 5794 5788 5781 5774 5766 5757 5750 5743 5737 5730 5723 5717 5709